#timestamp,LO_Frequency,Hit 
1501041615.5,286047009.1,N
1501041635.3,286047008.1,N
1501041655.1,286047009.7,N
1501041675.9,286047010.7,Y
1501041695.7,286047003.5,N
1501041715.6,286047001.4,N
1501041735.4,286047004.4,N
1501041755.2,286047001.9,N
1501041775.0,286047002.0,N
1501041775.9,286047002.0,N
1501041795.8,286047000.6,N
1501041815.6,286046998.1,N
1501041835.4,286047002.5,N
1501041855.3,286047000.4,N
1501041875.1,286046998.6,N
1501041895.8,286047000.3,N
1501041915.7,286047004.4,N
1501041935.5,286047005.5,N
1501041955.3,286047003.8,N
1501041975.2,286047004.2,N
1501041995.9,286047000.3,N
1501042015.7,286047000.0,N
1501042035.5,286047001.7,N
1501042055.4,286047005.6,N
1501042075.2,286047005.8,N
1501042095.0,286047003.6,N
1501042095.9,286047003.6,N
1501042115.8,286047005.7,N
1501042135.6,286047007.6,N
1501042155.4,286047006.3,N
1501042175.3,286047005.3,N
1501042195.1,286047003.1,N
1501042196.0,286047003.1,N
1501042215.8,286047003.2,N
1501042235.7,286047005.0,N
1501042255.5,286047004.9,N
1501042275.3,286047005.8,N
1501042295.1,286047004.3,N
1501042315.9,286047005.9,N
1501042335.7,286047003.6,N
1501042355.5,286047007.4,N
1501042375.4,286047005.3,N
1501042395.2,286047001.3,N
1501042415.1,286047003.6,N
1501042435.8,286047003.6,N
1501042455.7,286047003.2,N
1501042475.5,286047003.6,N
1501042495.3,286047004.7,N
1501042515.2,286047001.5,N
1501042535.9,286047002.7,N
1501042555.7,286047002.0,N
1501042575.6,286047003.6,N
1501042595.4,286047006.0,N
1501042615.2,286047005.6,N
1501042635.1,286047003.9,N
1501042636.0,286047003.9,N
1501042655.8,286047005.0,N
1501042675.6,286047002.2,N
1501042695.4,286047007.5,N
1501042715.3,286047007.0,N
1501042735.1,286047005.0,N
1501042755.8,286047003.9,N
1501042775.7,286047003.2,N
1501042795.5,286047007.4,N
1501042815.3,286047004.0,N
1501042835.2,286047001.8,N
1501042855.9,286047001.8,N
1501042875.7,286047002.9,N
1501042895.6,286047005.6,N
1501042915.4,286047008.8,N
1501042935.2,286047006.1,N
1501042955.0,286047006.8,N
1501042956.0,286047006.8,N
1501042975.8,286047006.8,N
1501042995.6,286047005.1,N
1501043015.4,286047005.6,N
1501043035.3,286047007.2,N
1501043055.1,286047005.3,N
1501043075.8,286047004.7,N
1501043095.7,286047004.8,N
1501043115.5,286047006.8,N
1501043135.3,286047007.2,N
1501043155.2,286047007.5,N
1501043175.9,286047004.7,N
1501043195.7,286047006.8,N
1501043215.6,286047004.6,N
1501043235.4,286047005.7,N
1501043255.2,286047006.0,N
1501043275.0,286047005.5,N
1501043276.0,286047005.5,N
1501043295.8,286047007.3,N
1501043315.6,286047008.3,N
1501043335.4,286047008.7,N
1501043355.3,286047008.9,N
1501043375.1,286047006.8,N
1501043395.8,286047005.0,N
1501043415.7,286047004.8,N
1501043435.5,286047005.8,N
1501043455.3,286047005.5,N
1501043475.2,286047006.4,N
1501043495.9,286047007.2,N
1501043515.7,286047008.7,N
1501043535.5,286047006.6,N
1501043555.4,286047006.1,N
1501043575.2,286047007.6,N
1501043595.0,286047006.7,N
1501043595.9,286047006.7,N
1501043615.8,286047007.9,N
1501043635.6,286047010.4,Y
1501043655.4,286047000.8,N
1501043675.3,286047004.3,N
1501043695.1,286047000.0,N
1501043715.8,286047001.2,N
1501043735.7,286046999.9,N
1501043755.5,286046999.3,N
1501043775.3,286046999.3,N
1501043795.2,286047002.5,N
1501043815.9,286047003.2,N
1501043835.7,286046999.9,N
1501043855.5,286047002.4,N
1501043875.4,286047002.2,N
1501043895.2,286047001.3,N
1501043915.0,286047002.5,N
1501043916.0,286047002.5,N
1501043935.8,286046996.9,N
1501043955.6,286046995.4,N
1501043975.4,286046995.8,N
1501043995.3,286046996.9,N
1501044015.1,286046993.9,N
1501044035.8,286046995.7,N
1501044055.7,286046997.2,N
1501044075.5,286046999.0,N
1501044095.3,286047000.3,N
1501044115.2,286047001.9,N
1501044135.9,286047000.0,N
1501044155.7,286047003.8,N
1501044175.6,286047002.0,N
1501044195.4,286047000.6,N
1501044215.2,286047000.8,N
1501044235.0,286046998.8,N
1501044235.9,286046998.8,N
1501044255.8,286047004.0,N
1501044275.6,286047004.2,N
1501044295.4,286047002.7,N
1501044315.3,286047002.3,N
1501044335.1,286046999.7,N
1501044355.8,286047001.1,N
1501044375.7,286047000.6,N
1501044395.5,286046996.6,N
1501044415.3,286046999.1,N
1501044435.2,286046998.4,N
1501044455.9,286046999.1,N
1501044475.7,286046999.9,N
1501044495.5,286047003.3,N
1501044515.4,286047005.0,N
1501044535.2,286047004.2,N
1501044555.0,286047003.8,N
1501044555.9,286047003.8,N
1501044575.8,286047007.5,N
1501044595.6,286047004.6,N
1501044615.4,286047005.4,N
1501044635.3,286047005.6,N
1501044655.1,286047003.2,N
1501044656.0,286047003.2,N
1501044675.8,286047003.3,N
1501044695.7,286047001.4,N
1501044715.5,286047000.1,N
1501044735.3,286046999.4,N
1501044755.1,286046998.6,N
1501044775.9,286047003.7,N
1501044795.7,286047002.3,N
1501044815.5,286046998.6,N
1501044835.4,286046995.1,N
1501044855.2,286046992.1,N
1501044875.0,286046994.5,N
1501044875.9,286046994.5,N
1501044895.8,286046993.9,N
1501044915.6,286046993.6,N
1501044935.4,286046995.0,N
1501044955.3,286046996.6,N
1501044975.1,286046998.6,N
1501044976.0,286046998.6,N
1501044995.8,286046997.9,N
1501045015.7,286046997.2,N
1501045035.5,286046998.9,N
1501045055.3,286046996.5,N
1501045075.1,286046999.5,N
1501045095.9,286047000.9,N
1501045115.7,286047002.7,N
1501045135.5,286046998.3,N
1501045155.4,286047002.8,N
1501045175.2,286046999.9,N
1501045195.0,286047000.8,N
1501045195.9,286047000.8,N
